This is the latest recevied weather packets stored in our database for station/object EA1GGY-1. If no packets are shown the sender has not sent any weather packets the latest 10 day(s).
| Time | Temp. | Humidity | Pressure | Rain* | Wind** | Luminosity | Snow |
|---|---|---|---|---|---|---|---|
| 1777861707 | 6.11° C | 77% | 1008.3 hPa | - | - | - | - |
| 1777861108 | 6.11° C | 74% | 1008.4 hPa | - | - | - | - |
| 1777860506 | 6.67° C | 76% | 1008.4 hPa | - | - | - | - |
| 1777859904 | 6.67° C | 77% | 1008.3 hPa | - | - | - | - |
| 1777859305 | 6.67° C | 75% | 1008.3 hPa | - | - | - | - |
| 1777858704 | 7.22° C | 74% | 1008.3 hPa | - | - | - | - |
| 1777858102 | 6.11° C | 77% | 1008.5 hPa | - | - | - | - |
| 1777857501 | 6.11° C | 77% | 1008.5 hPa | - | - | - | - |
| 1777856902 | 6.67° C | 77% | 1008.5 hPa | - | - | - | - |
| 1777856300 | 7.22° C | 76% | 1008.5 hPa | - | - | - | - |
| 1777855699 | 6.11° C | 78% | 1008.6 hPa | - | - | - | - |
| 1777855099 | 6.67° C | 76% | 1008.6 hPa | - | - | - | - |
| 1777854498 | 7.22° C | 78% | 1008.5 hPa | - | - | - | - |
| 1777853898 | 7.22° C | 79% | 1008.6 hPa | - | - | - | - |
| 1777853296 | 8.89° C | 80% | 1008.5 hPa | - | - | - | - |
| 1777852209 | 7.78° C | 77% | 1008.6 hPa | - | - | - | - |
| 1777851608 | 7.78° C | 78% | 1008.7 hPa | - | - | - | - |
| 1777851007 | 7.78° C | 78% | 1008.5 hPa | - | - | - | - |
| 1777850406 | 8.33° C | 77% | 1008.6 hPa | - | - | - | - |
| 1777849806 | 8.89° C | 77% | 1008.6 hPa | - | - | - | - |
| 1777849204 | 8.33° C | 78% | 1008.7 hPa | - | - | - | - |
| 1777848603 | 9.44° C | 76% | 1008.8 hPa | - | - | - | - |
| 1777848003 | 8.89° C | 78% | 1008.7 hPa | - | - | - | - |
| 1777847401 | 8.89° C | 79% | 1008.8 hPa | - | - | - | - |
| 1777846801 | 9.44° C | 78% | 1008.7 hPa | - | - | - | - |
* Rain since midnight (hover to see other rain measurements)
** Current wind speed in m/s (hover to see current wind gust speed)